RH
94 95 96 96 97 97 93 90 89 86 81 78 74 72 68 67 65 66 75 80 76 73 72 70 66 54 48 52 52 51 46 38 30 21 22 30 38 44 46 49 51 54 54 53 53 54 55 55 53 51 50 50 45 41 40 42 54 64 62 59 57 57
95 96 97 97 96 95 91 88 86 82 78 73 69 66 63 67 70 71 78 84 85 82 79 79 80 66 50 51 52 52 54 54 50 39 31 30 32 36 38 41 44 46 47 47 50 56 59 60 62 61 60 59 52 47 48 53 56 60 64 63 58 55
94 95 94 94 94 90 87 85 81 78 72 62 60 59 56 65 75 77 80 86 90 89 87 86 90 82 62 59 61 57 59 59 62 62 56 51 46 44 44 47 50 49 43 40 44 52 58 59 61 62 63 62 58 58 58 59 60 60 64 65 61 57
91 92 91 90 89 88 85 82 79 74 66 59 63 66 62 67 74 79 84 88 89 88 91 90 91 91 75 70 75 73 74 71 68 70 71 73 70 66 65 66 68 67 60 54 53 56 60 60 60 59 61 63 60 59 58 58 61 62 64 65 62 58
79 81 85 86 86 87 84 81 77 69 66 69 72 75 75 78 79 82 87 88 86 84 88 89 88 91 80 74 80 80 81 81 78 78 78 78 77 75 74 73 72 71 69 68 66 65 65 65 62 57 57 61 60 57 55 56 57 58 59 61 61 59
70 70 78 84 84 83 81 79 72 64 67 73 74 80 83 86 86 84 87 87 86 84 84 85 84 85 81 78 80 80 79 80 79 79 80 80 79 78 75 73 71 68 68 69 68 68 68 67 63 58 55 58 61 60 59 58 58 57 55 56 59 59
75 73 77 80 81 81 78 74 69 65 69 71 73 81 84 86 86 85 87 85 83 83 81 81 82 82 82 82 80 79 80 79 78 76 77 79 81 80 77 75 74 71 71 72 71 70 71 70 67 63 59 59 62 62 61 61 60 60 58 57 58 59
79 76 76 79 79 77 74 71 72 72 71 71 72 78 85 86 85 84 84 81 79 82 82 81 82 82 81 81 80 80 82 81 79 79 77 79 80 79 80 80 78 76 75 76 75 74 72 70 69 68 64 64 64 62 61 60 59 59 59 58 58 60
77 70 71 75 73 71 73 73 75 78 77 75 75 78 85 83 80 82 82 81 82 82 81 79 79 79 79 81 82 83 84 81 81 82 80 80 81 81 82 81 79 78 76 76 77 74 71 68 68 67 65 64 64 64 63 62 60 59 58 58 59 60
73 65 68 72 71 72 76 78 79 84 82 78 79 82 83 78 76 80 82 84 85 84 83 80 79 78 79 82 84 84 83 81 82 83 83 83 84 84 82 80 79 77 75 74 74 73 70 69 68 67 66 65 64 65 65 64 63 62 61 60 60 61
72 67 69 72 74 74 77 80 81 82 81 78 81 82 78 74 75 80 84 85 84 84 85 82 82 81 81 83 83 82 82 81 83 85 85 85 86 86 83 81 79 78 77 75 73 73 73 71 69 69 68 67 67 67 67 67 66 66 66 65 65 65
73 71 72 73 76 76 77 80 79 77 78 80 80 77 74 73 77 84 88 88 84 82 82 81 85 85 82 84 84 82 82 84 86 86 87 87 88 86 83 82 80 79 80 77 75 73 74 73 71 71 69 69 70 70 70 69 68 67 68 69 70 70
70 71 73 75 77 78 78 78 77 76 78 80 79 75 72 72 78 83 86 89 87 82 80 79 84 85 83 85 84 82 82 84 87 88 88 88 88 86 83 83 81 81 80 76 73 71 72 72 73 73 70 71 72 72 72 72 71 70 71 72 72 72
68 69 69 70 75 77 77 76 76 77 79 80 77 75 74 73 76 80 82 85 85 83 78 74 78 81 82 85 85 85 84 86 90 92 90 87 86 86 84 84 82 80 77 75 75 74 76 76 76 74 72 72 72 72 73 74 74 72 72 72 72 73
69 68 65 66 72 76 76 76 77 78 79 78 75 76 77 76 77 81 84 85 84 84 80 75 79 82 84 86 86 88 87 88 94 93 90 86 85 86 85 85 83 80 77 76 77 78 81 81 79 76 74 73 72 71 71 72 73 72 72 73 73 74
69 68 67 69 73 76 78 79 80 81 81 78 75 78 81 81 82 85 86 85 84 85 82 82 87 89 88 89 89 91 91 92 94 91 89 88 86 87 86 85 85 83 80 80 81 81 82 81 78 76 74 72 69 68 68 67 67 68 68 70 73 75
70 70 71 76 78 80 82 83 83 83 82 80 80 82 83 83 86 88 86 85 87 87 87 89 92 90 89 91 91 93 94 94 93 90 89 89 88 88 87 85 85 84 83 84 83 81 80 79 77 76 73 70 69 66 64 64 65 67 67 69 76 79
73 74 75 81 84 85 86 86 86 86 85 84 85 86 86 87 90 92 91 91 91 91 91 91 90 89 89 91 92 91 92 92 91 90 90 89 88 88 86 85 85 84 83 84 82 79 79 77 75 74 71 70 67 63 64 68 69 71 72 73 78 78
78 80 83 86 87 87 88 89 89 89 88 86 88 90 92 94 95 96 95 94 93 92 91 89 88 88 88 89 89 89 89 89 89 88 87 86 85 84 84 82 81 81 81 82 81 79 77 75 73 72 70 68 62 58 66 74 70 69 72 71 71 70
86 87 88 89 88 88 92 93 92 91 91 91 93 96 96 96 96 95 94 93 91 91 90 89 88 87 86 86 85 85 85 86 87 87 86 85 83 82 82 80 79 78 77 78 78 76 76 74 71 68 64 62 59 57 67 75 67 65 71 68 67 66
93 92 90 90 89 90 94 95 94 93 95 97 97 97 96 93 92 92 91 90 89 89 88 86 85 84 84 83 82 82 81 82 84 84 83 83 82 81 80 79 78 77 76 77 77 78 76 71 70 73 71 63 57 57 69 78 68 64 71 71 69 66
97 97 93 91 90 90 92 93 93 95 97 97 96 94 93 90 89 89 88 88 87 86 85 82 81 80 80 79 78 78 77 77 80 82 82 81 80 80 80 79 78 76 77 79 80 81 78 75 79 87 90 84 73 64 66 69 61 63 74 74 70 68
97 97 95 92 90 89 91 91 92 96 97 94 92 91 90 88 87 86 85 83 82 81 80 78 78 77 77 78 78 77 75 75 78 79 79 79 79 80 80 80 79 77 78 80 82 82 81 84 85 82 88 97 96 87 80 71 61 64 76 76 71 69
97 95 93 90 88 87 89 92 96 97 95 92 90 89 87 86 84 83 81 79 78 77 77 76 76 76 76 77 78 76 75 76 77 77 77 78 79 79 80 80 80 79 79 80 81 82 81 84 87 84 91 100 97 95 97 90 79 75 74 74 72 69
95 91 89 87 86 85 88 95 99 97 93 90 89 87 86 84 82 80 79 78 77 76 75 75 74 74 74 75 76 76 75 75 75 75 76 77 79 80 80 81 83 83 83 82 78 79 79 80 85 88 94 99 95 96 99 92 88 84 75 73 73 64
91 89 86 85 85 85 89 95 96 94 92 91 90 87 84 83 82 80 79 77 76 75 74 73 73 74 73 74 75 76 76 76 75 77 77 79 79 77 77 81 85 83 83 79 69 69 74 73 74 77 83 91 94 95 94 88 89 89 79 75 72 59
89 89 87 86 86 86 91 94 93 93 92 92 92 89 85 84 82 80 78 76 75 75 73 73 73 74 73 73 76 77 77 76 76 76 74 72 70 68 71 77 77 74 75 72 64 68 74 71 68 72 76 83 84 80 78 81 90 95 91 84 73 61
90 91 90 88 87 87 91 95 95 94 94 93 91 89 86 84 81 78 76 75 75 74 73 73 74 74 74 73 76 78 77 76 75 70 63 62 65 68 72 73 72 71 73 73 72 74 77 74 74 77 78 80 81 75 69 71 78 88 95 93 82 73
92 92 93 91 90 92 95 97 95 94 95 95 92 89 86 82 79 76 75 74 74 74 74 74 74 75 75 73 75 77 76 77 75 68 65 69 73 73 74 74 74 75 74 74 74 73 73 76 79 80 79 78 77 74 69 67 69 76 86 93 91 84
88 88 89 90 92 95 98 97 94 92 94 96 92 88 84 80 77 75 74 74 73 73 73 73 73 74 73 71 74 75 75 77 77 73 73 76 78 75 72 71 73 73 72 71 69 68 70 72 72 73 74 75 76 78 76 77 79 80 82 88 91 88
82 82 86 91 93 95 96 93 92 91 92 93 91 87 83 78 76 75 74 71 69 68 68 68 69 70 70 72 75 75 75 75 74 72 73 75 76 74 71 68 67 68 68 68 66 65 67 67 64 66 69 73 79 81 83 86 87 86 86 89 91 89
80 80 85 90 92 93 91 89 88 88 89 90 88 86 82 77 76 76 73 70 68 65 62 64 67 68 69 73 74 74 73 69 66 65 69 72 71 70 69 65 64 64 64 65 65 63 64 62 60 64 68 71 74 75 77 79 76 77 84 87 88 89
79 79 83 86 88 87 86 86 87 88 89 89 88 86 82 78 77 76 73 70 68 64 60 63 68 69 68 69 68 68 67 65 61 60 64 67 64 64 64 62 60 62 62 64 65 62 61 61 59 63 68 69 70 71 68 64 60 67 78 80 83 87
78 78 79 81 84 85 86 87 88 90 92 91 89 86 81 76 75 74 73 71 68 63 60 63 67 68 66 65 63 62 62 62 60 57 58 60 59 60 60 60 60 62 62 62 64 64 62 61 62 64 66 67 70 68 59 53 56 65 72 74 79 84
78 78 77 78 81 82 84 86 87 90 93 92 90 85 78 74 73 72 72 71 68 64 61 62 63 65 65 63 61 60 59 59 59 57 56 56 57 58 58 60 62 63 64 63 63 65 63 63 64 64 65 68 67 60 54 55 61 66 68 70 73 77
78 78 77 77 78 79 81 83 85 88 90 91 88 82 76 73 72 71 70 70 67 64 62 61 60 60 61 61 61 61 59 58 57 57 57 56 57 58 58 60 61 62 63 63 63 64 63 64 65 65 66 65 59 55 55 61 66 67 68 69 69 71
78 78 78 78 79 80 80 81 83 86 86 86 83 78 75 73 71 70 68 65 64 62 61 60 60 60 59 59 60 61 60 59 57 56 56 57 58 59 59 60 60 59 59 61 63 64 64 64 65 65 63 57 52 55 61 65 66 65 65 67 69 72
Wind_Speed
17 16 17 16 15 14 14 13 13 12 11 10 9 9 8 9 9 9 9 8 8 8 8 8 8 8 8 9 9 10 10 11 10 9 8 8 7 5 4 3 2 1 0 1 1 0 2 3 2 1 2 3 4 4 6 7 5 6 7 4 4 7
16 16 16 16 16 15 14 14 13 13 11 10 10 9 9 9 9 8 7 6 6 5 6 7 7 7 7 7 7 7 7 9 9 9 8 6 5 4 3 2 1 1 2 2 2 1 2 1 4 4 4 5 4 3 4 4 5 7 9 7 6 8
17 17 17 17 17 16 15 15 14 13 12 11 10 10 10 10 9 8 6 5 3 3 3 5 5 6 7 7 6 6 5 5 6 7 6 6 4 3 2 1 2 3 3 3 3 3 3 5 7 7 6 6 6 5 5 5 6 7 9 10 8 8
18 18 18 18 18 17 17 16 15 13 12 12 11 11 11 10 9 7 6 4 3 2 2 3 3 3 3 5 5 5 4 3 3 3 3 3 3 3 2 3 3 4 5 5 5 6 7 9 11 11 9 7 7 7 7 8 9 9 10 11 10 9
19 19 20 20 19 18 17 16 14 13 13 12 11 10 9 8 7 6 6 5 3 2 2 1 1 0 2 3 4 3 3 3 3 3 3 2 1 2 3 3 4 4 5 7 8 9 10 12 13 13 12 10 8 8 9 10 11 12 12 12 9 8
18 19 20 22 20 18 17 16 13 13 13 11 10 8 7 6 7 8 7 6 5 3 2 2 2 2 4 4 3 2 2 3 4 4 3 3 3 4 5 5 5 5 6 8 9 9 10 12 13 12 11 10 10 10 11 12 13 13 14 12 10 9
18 17 18 21 20 19 17 14 12 12 12 10 9 7 7 8 10 10 8 7 5 4 3 3 3 3 4 4 3 2 3 3 4 4 4 4 4 5 5 6 7 7 7 9 9 9 10 10 10 10 9 9 10 10 12 14 14 15 15 13 11 11
18 15 16 19 21 19 16 14 11 10 10 9 8 6 9 11 10 9 8 6 5 4 3 3 2 2 2 2 2 2 3 4 4 4 5 5 4 4 4 5 6 7 8 8 8 9 9 9 9 10 9 10 10 11 12 14 14 15 15 14 13 13
17 15 16 20 21 18 16 14 11 10 8 7 7 7 11 11 8 7 6 5 4 4 3 2 2 1 1 1 1 1 3 4 4 4 4 5 4 4 4 5 6 6 7 6 7 8 8 8 8 9 9 10 11 11 11 13 13 14 15 16 16 16
17 16 18 21 21 17 17 16 14 14 11 9 10 11 13 11 8 8 7 6 6 6 6 5 5 4 3 2 1 2 2 3 4 4 4 4 4 5 5 5 5 5 5 6 7 8 8 8 8 8 9 10 11 11 11 12 12 12 12 13 15 16
20 19 21 21 20 19 19 18 16 16 13 12 15 15 13 10 9 9 7 8 9 9 8 8 8 6 4 3 2 2 2 2 3 3 4 5 4 5 5 5 5 4 5 6 7 8 8 9 8 8 9 10 11 12 13 13 12 11 11 11 12 13
23 22 22 22 21 20 20 19 17 16 14 15 16 14 12 10 11 9 7 8 9 9 9 9 10 7 4 3 2 1 0 0 1 2 4 4 4 4 4 4 4 4 5 7 8 8 8 9 9 9 9 10 11 12 13 14 14 13 12 12 12 13
23 23 24 23 22 21 20 19 17 16 15 15 15 14 12 10 11 9 8 8 8 8 9 9 10 8 5 2 1 1 1 2 1 2 2 3 4 4 3 3 3 4 6 7 8 8 8 9 9 9 9 10 10 11 12 13 14 14 14 14 14 14
23 23 23 21 21 21 19 18 17 16 15 14 14 13 10 9 10 9 8 9 8 8 9 9 8 9 7 3 0 1 1 2 1 2 1 3 4 3 3 3 4 5 6 7 8 8 9 9 9 10 10 11 11 12 12 13 13 14 14 14 15 15
22 21 20 18 19 20 18 18 17 15 14 13 13 11 9 9 9 8 8 9 10 9 9 8 7 9 9 5 2 2 3 3 3 2 1 1 2 2 2 3 5 6 6 7 7 7 8 9 9 10 10 11 11 12 12 13 13 13 14 14 14 14
21 19 18 17 18 19 18 17 15 13 13 12 12 11 9 9 8 8 9 9 10 9 10 10 10 10 10 7 5 5 5 5 4 3 3 2 2 2 3 4 5 6 7 8 8 8 8 9 10 10 11 10 10 10 11 12 13 13 13 13 14 14
20 18 18 18 19 18 17 16 14 13 12 12 11 11 10 10 9 9 9 9 10 12 14 14 14 12 11 9 8 8 7 6 4 4 4 4 5 5 5 5 5 6 7 8 9 9 9 10 11 11 11 10 10 10 11 13 13 12 12 12 13 14
19 17 18 19 19 17 17 16 15 14 13 13 12 12 12 12 12 12 12 13 13 15 15 15 14 12 11 10 8 7 7 6 5 5 5 5 6 6 6 5 5 6 7 8 9 11 12 12 11 12 11 11 10 10 10 11 10 10 10 10 11 11
18 18 19 20 19 17 17 16 16 15 15 15 14 14 16 17 18 17 16 16 15 14 13 12 11 10 9 8 7 6 6 5 5 5 5 5 6 6 6 6 6 5 6 7 9 11 12 12 12 12 12 11 10 8 7 7 10 13 13 14 13 12
18 18 19 20 19 18 18 18 18 17 18 18 18 19 20 20 20 18 17 15 14 13 11 10 10 8 7 6 4 4 4 5 4 5 5 5 6 7 6 7 7 5 6 6 9 12 13 14 13 13 13 11 8 7 3 5 9 14 15 16 16 15
19 18 19 20 19 19 20 20 20 21 23 23 22 22 21 20 20 18 16 14 13 11 10 10 9 7 5 4 3 2 2 4 3 3 3 4 5 6 6 6 6 6 7 7 10 14 15 14 12 13 13 12 11 7 1 1 6 14 17 17 17 18
18 18 19 19 19 20 20 21 23 25 25 24 23 22 21 19 18 17 14 12 11 10 9 9 8 7 5 4 4 4 3 4 3 3 3 4 4 5 6 6 6 6 6 8 11 15 17 13 11 11 9 10 12 7 1 2 4 13 17 16 17 19
18 18 19 18 19 19 19 21 24 26 25 23 22 21 20 18 16 15 13 11 10 9 8 8 8 6 6 6 5 5 5 4 4 4 3 4 5 6 7 8 8 7 6 7 11 15 18 17 15 11 4 3 6 5 4 3 9 15 14 14 17 19
17 17 17 17 17 18 19 23 24 24 23 22 21 19 18 16 14 14 13 12 11 10 9 9 8 7 6 6 6 5 6 6 6 5 4 5 7 8 9 9 10 8 7 9 12 15 17 19 20 13 5 2 2 3 2 6 16 14 9 13 15 18
17 16 16 16 17 19 23 25 25 24 22 21 20 18 17 16 14 15 14 14 13 11 10 10 9 8 7 7 6 7 8 8 8 7 6 8 9 10 10 11 11 10 11 11 12 14 15 18 22 18 12 4 2 3 2 8 13 7 6 12 12 17
17 16 16 17 19 23 27 28 27 26 24 21 19 17 17 17 15 16 15 15 13 11 10 10 10 9 8 8 8 9 9 9 10 10 9 9 10 11 11 12 12 12 13 12 12 16 17 17 19 21 19 14 9 7 4 8 6 4 9 8 7 17
17 16 17 19 22 25 27 27 27 26 24 22 19 17 17 16 15 16 16 15 13 11 10 10 10 10 9 8 9 10 10 11 11 11 10 10 12 13 15 16 16 17 19 18 18 22 21 18 19 20 20 19 17 17 14 12 5 4 7 4 8 18
18 17 18 20 22 25 26 25 24 23 22 21 20 20 18 16 16 16 16 14 13 12 10 9 9 9 9 8 9 10 11 12 12 13 13 15 18 19 20 20 21 22 23 23 23 23 21 20 19 17 17 18 17 18 20 19 13 8 4 4 10 15
18 18 18 20 22 24 24 24 24 23 22 21 21 21 19 17 17 16 16 15 14 13 11 10 9 9 9 9 9 11 11 12 13 15 17 19 20 20 20 20 20 21 22 23 22 21 21 21 20 17 17 17 16 17 19 20 20 15 8 5 6 9
18 17 17 19 21 22 22 22 23 23 23 23 22 22 20 19 18 17 17 16 15 15 13 12 10 10 10 10 11 12 13 14 14 16 17 18 18 18 19 19 19 20 21 22 21 21 22 23 23 23 22 21 18 17 15 16 17 16 11 7 5 7
19 17 17 18 21 21 21 21 21 21 22 23 22 21 21 20 19 19 19 18 17 15 14 13 11 12 12 13 14 15 16 16 16 16 17 17 17 17 18 19 19 20 20 21 20 21 23 23 23 24 24 24 22 20 17 14 15 15 11 7 6 6
20 18 19 20 21 21 20 20 19 18 19 19 19 19 20 20 19 20 20 18 17 16 15 14 14 14 15 15 16 17 17 17 17 17 17 17 17 16 17 18 18 19 19 20 20 20 22 22 22 23 24 24 23 24 23 20 18 18 15 11 8 5
20 19 19 20 21 20 19 18 17 17 18 18 18 18 20 20 20 20 19 17 16 16 16 15 15 16 16 16 17 17 18 18 18 18 17 17 17 17 18 19 19 19 19 20 20 21 23 23 22 22 23 24 24 24 24 22 21 21 18 16 14 9
20 19 19 20 20 19 18 18 17 17 18 18 19 19 20 20 20 19 17 16 15 15 16 16 16 16 16 17 18 18 18 18 18 17 17 17 18 18 19 19 20 20 20 19 19 20 22 22 22 22 22 23 24 24 23 22 23 22 21 18 16 12
21 19 19 19 19 19 18 17 17 17 18 19 19 20 20 20 20 18 16 15 15 15 16 16 15 16 15 16 17 17 17 17 17 17 17 17 17 18 18 19 20 21 20 19 18 20 20 21 22 21 21 22 23 22 22 23 23 22 21 19 18 16
21 20 18 18 18 17 17 16 16 18 19 19 20 22 21 19 18 17 14 13 15 16 16 16 16 15 15 16 16 17 17 17 17 17 17 17 17 18 18 19 19 19 19 18 18 19 20 21 21 21 21 21 21 22 22 22 23 22 22 20 19 18
21 19 18 17 17 17 17 16 16 17 19 20 21 22 20 18 17 16 14 14 16 17 16 16 17 16 16 16 16 17 17 18 17 17 18 17 17 18 18 18 19 18 18 17 18 19 19 20 20 20 21 21 21 22 22 22 23 22 21 20 19 18
Wind_Direction
161 159 157 153 153 150 148 152 151 152 150 145 139 137 138 136 133 126 113 101 95 93 87 81 76 73 78 78 75 72 71 77 84 96 113 132 145 151 147 147 143 136 73 36 29 160 141 92 70 60 8 333 305 282 292 308 324 341 344 337 279 268
162 162 159 156 154 151 153 158 157 159 153 144 141 142 144 136 131 122 112 100 91 90 85 77 68 61 63 68 72 75 77 79 83 90 100 115 129 140 147 160 196 273 284 302 332 303 232 343 355 335 329 337 338 320 311 319 333 335 334 330 298 279
163 165 165 161 160 158 160 164 164 162 148 141 140 141 143 136 131 120 104 91 83 85 79 68 60 59 54 53 54 61 72 81 86 87 90 93 93 94 89 43 1 345 326 312 323 327 299 309 323 323 319 327 337 334 325 318 320 323 323 319 305 285
170 170 171 168 167 165 164 169 168 158 147 147 146 141 142 140 136 123 105 99 94 104 107 78 62 62 46 38 34 36 44 52 66 70 74 79 78 70 45 20 4 357 352 339 329 328 321 317 316 311 303 307 320 325 323 315 308 309 311 308 301 289
179 180 179 175 171 169 168 172 168 155 150 153 155 149 148 152 151 135 125 129 130 130 127 106 74 333 314 345 3 2 1 360 358 3 15 32 50 32 14 5 360 355 347 337 330 329 329 329 325 311 294 289 298 313 321 319 313 313 313 306 295 288
183 185 185 181 174 171 170 170 164 156 155 158 162 156 150 163 165 151 145 152 156 158 160 185 231 270 296 314 335 335 335 337 338 341 346 354 357 357 358 359 356 352 345 337 333 336 340 340 335 321 302 291 294 303 314 318 318 317 317 310 295 290
185 185 185 182 177 174 171 165 158 157 159 159 161 156 144 149 152 151 159 169 170 180 206 224 240 271 295 307 311 317 344 347 345 346 351 352 349 351 357 3 2 357 351 341 337 341 347 346 341 337 328 320 314 309 310 313 315 315 315 314 304 299
185 185 183 180 176 174 169 164 163 164 162 163 169 164 149 147 150 156 168 179 180 194 219 229 250 287 296 306 298 304 2 2 357 353 357 357 354 354 358 4 2 359 356 346 342 340 339 341 343 345 343 339 331 318 311 309 310 311 308 307 306 305
183 180 176 174 173 171 171 173 181 184 185 196 201 182 162 161 166 167 171 185 191 186 175 143 98 52 69 52 10 358 20 18 6 355 0 4 2 356 350 357 358 358 356 345 339 335 332 336 340 340 335 332 327 319 314 310 309 308 304 301 302 303
180 176 172 171 174 176 184 191 198 198 201 206 195 176 171 176 183 180 182 191 187 166 143 117 90 69 62 62 30 348 16 24 10 5 11 7 353 339 336 345 345 345 343 329 324 324 326 331 338 340 333 328 324 321 320 319 316 315 313 310 307 306
183 183 180 178 182 187 190 190 188 190 189 181 173 171 177 187 189 189 197 196 185 166 145 123 103 82 64 51 8 337 5 14 14 10 4 360 346 332 335 341 332 328 330 325 323 321 323 327 333 338 333 328 325 321 320 321 321 318 318 316 314 313
186 190 189 186 188 187 184 179 175 178 179 171 171 177 188 195 191 192 201 193 182 166 147 129 114 103 90 60 14 333 322 67 55 5 348 341 326 315 322 331 326 323 323 321 322 318 316 319 324 327 327 326 324 321 320 319 316 313 314 314 313 312
179 183 182 181 182 180 178 176 172 176 176 171 176 188 194 196 195 194 190 180 174 156 139 134 125 118 113 72 340 263 182 165 113 5 329 295 294 302 306 316 326 327 321 320 323 324 322 320 320 319 319 321 321 321 321 319 318 314 313 314 313 310
172 173 173 176 178 179 180 178 176 177 177 176 181 191 196 199 197 191 178 170 170 152 134 136 134 125 115 92 332 157 142 146 88 38 335 284 293 311 311 320 331 328 328 334 337 343 341 334 327 322 318 318 316 315 315 316 318 316 315 315 314 314
172 172 172 176 178 180 182 181 181 180 180 182 185 190 195 194 188 181 173 163 159 148 131 124 111 103 103 108 133 126 136 136 106 73 32 321 305 318 333 346 343 337 340 345 346 350 349 341 332 325 322 319 316 313 312 314 317 317 318 318 317 318
173 172 171 175 178 180 180 179 179 176 174 179 183 185 181 177 171 166 167 159 148 134 119 114 104 101 110 126 129 115 111 111 101 75 59 42 11 11 16 13 10 1 359 0 354 347 342 336 330 326 324 320 318 316 316 320 321 319 317 317 321 323
173 172 171 173 175 175 175 173 174 169 167 169 170 167 163 163 157 151 149 141 127 114 109 113 116 116 121 123 116 107 98 92 83 61 53 41 32 30 21 21 27 22 20 16 3 348 338 334 330 323 320 319 318 320 326 331 329 327 323 323 328 331
171 172 172 172 169 166 166 166 166 162 160 159 153 146 143 140 133 128 124 117 111 108 111 117 119 120 118 112 106 100 91 81 66 53 44 34 32 26 21 21 24 32 32 20 8 355 341 335 329 321 318 318 318 324 340 354 3 7 6 4 2 360
171 171 170 169 164 160 159 158 156 153 151 147 138 130 126 123 120 119 117 113 112 111 114 118 118 120 118 110 100 84 72 59 43 33 23 18 16 9 10 12 11 21 24 17 7 354 343 334 327 320 318 315 316 332 2 38 41 40 41 38 33 27
170 170 166 164 161 158 155 151 149 144 138 133 128 125 122 120 120 120 120 119 120 116 113 112 109 112 113 110 100 71 53 44 17 348 349 3 12 6 358 360 2 0 357 356 352 347 343 336 326 321 319 313 315 333 25 78 46 41 41 35 32 27
167 168 166 163 161 158 153 148 144 136 129 124 125 124 121 121 120 120 122 121 120 115 112 108 101 100 101 103 105 97 69 59 31 351 10 26 25 13 359 357 2 4 358 357 1 358 350 342 339 337 329 324 328 333 123 156 21 31 29 24 23 19
166 166 166 164 161 158 155 151 142 134 127 123 124 125 123 121 121 120 118 116 114 112 113 107 101 102 100 94 90 89 76 69 70 64 68 57 38 25 15 8 3 11 21 25 27 19 8 5 4 353 334 330 337 339 326 240 348 18 21 21 17 14
165 164 164 162 161 158 154 149 140 133 129 126 125 127 125 123 124 120 113 110 109 106 106 101 99 98 95 89 79 77 76 80 85 79 81 66 49 39 30 26 22 27 45 51 46 35 29 33 23 6 351 354 357 344 332 342 341 351 12 20 13 11
164 165 163 164 166 161 150 143 137 134 135 132 128 129 127 123 125 121 110 104 99 97 98 96 96 92 88 87 84 90 93 95 95 87 82 70 59 52 43 39 37 43 59 62 56 46 44 46 40 34 26 335 346 3 359 346 332 327 3 14 8 11
166 166 165 164 163 157 147 140 136 134 135 132 130 132 129 123 120 116 107 100 97 96 97 96 96 91 88 92 95 103 106 104 100 90 82 77 70 59 50 48 49 58 67 66 63 57 53 51 51 55 57 42 359 10 326 334 332 311 344 356 4 9
165 164 164 161 155 152 150 146 142 140 139 137 133 132 131 125 118 113 108 107 104 99 97 96 96 93 92 98 102 105 106 103 95 88 85 78 68 57 54 59 61 67 69 66 70 65 58 56 59 62 63 69 65 50 10 345 347 306 329 344 5 360
159 157 159 158 155 155 153 150 148 149 149 145 137 130 130 125 118 116 114 112 106 99 97 96 94 92 94 100 103 104 102 98 91 84 79 70 66 66 69 72 70 71 72 70 72 68 60 58 61 59 60 67 65 56 47 36 33 324 327 329 347 352
151 151 153 155 160 160 157 153 152 152 150 147 142 134 131 127 123 121 115 109 103 100 99 95 91 88 92 98 101 105 101 97 90 80 75 74 76 77 77 76 73 73 73 69 68 68 62 54 52 50 52 61 63 55 50 48 41 22 359 311 332 346
150 154 156 158 162 162 160 159 157 153 147 145 143 138 135 130 126 123 115 108 104 101 98 94 90 86 91 96 99 105 105 101 93 84 82 81 80 79 77 74 72 72 72 69 68 68 64 59 59 60 59 62 64 56 51 48 41 34 27 346 333 338
145 150 158 163 166 164 163 162 159 154 147 144 142 139 135 130 126 123 116 110 103 98 94 91 90 88 92 99 102 106 107 103 98 93 89 85 83 82 79 76 73 74 74 72 71 69 69 71 72 72 69 66 64 57 51 44 38 34 28 10 343 332
138 143 150 158 163 163 164 163 160 156 150 147 145 141 136 132 129 124 116 110 103 96 93 91 94 96 98 104 106 106 105 102 100 98 94 90 88 86 84 81 77 76 75 73 72 71 72 74 74 72 70 67 64 61 57 51 43 39 36 22 351 332
136 140 144 151 156 157 159 159 157 155 150 149 149 145 140 134 131 125 118 112 105 98 94 95 100 102 103 108 107 106 105 100 97 96 95 94 90 87 87 84 79 76 75 74 72 70 70 69 69 70 70 67 65 62 58 54 49 45 43 35 19 355
138 139 141 145 148 150 153 153 152 151 149 149 149 146 140 133 131 128 123 118 111 104 100 100 104 105 106 108 107 106 104 98 95 94 96 96 90 88 87 83 79 76 75 76 72 70 70 69 70 72 70 67 62 58 54 49 49 47 44 36 26 9
140 142 144 143 144 146 147 150 153 152 151 150 146 143 139 135 133 131 126 120 116 112 108 105 108 109 108 108 106 104 103 99 96 94 96 96 91 89 88 83 80 77 76 77 75 74 76 75 74 71 68 65 59 55 53 51 51 48 42 36 27 11
142 145 147 146 147 147 145 148 151 150 151 150 145 141 139 137 136 133 127 121 118 118 113 109 111 113 112 110 106 104 103 100 97 94 95 95 91 89 87 84 82 79 78 78 76 78 82 80 76 71 65 61 56 55 55 51 49 45 39 35 28 18
144 147 149 149 149 148 145 146 147 147 148 147 145 143 139 136 135 133 127 124 123 120 116 112 111 113 113 112 108 106 103 100 98 96 94 93 90 87 86 85 83 81 81 79 76 79 82 78 73 69 61 55 56 58 54 48 43 37 32 30 26 22
143 146 149 151 150 149 148 146 145 146 145 144 144 143 141 137 133 130 125 125 127 123 118 116 115 114 114 114 112 109 105 102 100 98 95 93 89 86 84 83 81 79 80 80 78 78 77 74 69 63 57 56 58 57 50 43 38 30 25 22 22 22